McConnell AFB, KS

11:09 AM CDT on August 23, 2019 (GMT -0500)
McConnell Air Force Base

Weather History for KIAB - May, 2019

Change the Weather History Date:

Saturday, May 18, 2019

  Actual Average Record
Temperature  
Mean Temperature 65 °F -  
Max Temperature 74 °F 74 °F 89 °F (1997)
Min Temperature 56 °F 55 °F 39 °F (2002)
Growing Degree Days 15 (Base 50)    
Moisture  
Dew Point 62 °F    
Average Humidity 79    
Maximum Humidity 94    
Minimum Humidity 59    
Precipitation  
Precipitation 1.07 in - - ()
Sea Level Pressure  
Sea Level Pressure 29.59 in    
Wind  
Wind Speed 18 mph (SE)    
Max Wind Speed 37 mph    
Max Gust Speed 43 mph    
Visibility 8 miles    
Events Rain , Thunderstorm    
Averages and records for this station are not official NWS values.
T = Trace of Precipitation, MM = Missing Value Source: NWS Daily Summary

Daily Weather History Graph

Daily Weather History Graph

Search for Another Location

Airport or City:

Astronomy

May. 18, 2019 Rise Set
Actual Time 6:17 AM CDT 8:34 PM CDT
Civil Twilight 5:47 AM CDT 9:03 PM CDT
Nautical Twilight 5:11 AM CDT 9:40 PM CDT
Astronomical Twilight 4:31 AM CDT 10:20 PM CDT
Moon 8:32 PM CDT (5/18) 6:23 AM CDT (5/18)
Length of Visible Light 15h 15m
Length of Day
14h 16m
Full, 100% of the Moon is Illuminated
May 18
Full
May 18
Full
May 26
Last Quarter
Jun 3
New
Jun 10
First Quarter

Hourly Weather History & Observations

Time (CDT) Temp. Dew Point Humidity Pressure Visibility Wind Dir Wind Speed Gust Speed Precip Events Conditions
12:56 AM 72.5 °F 64.0 °F 75% 29.61 in 10.0 mi SE 24.2 mph 29.9 mph N/A   Partly Cloudy
1:56 AM 72.1 °F 64.0 °F 76% 29.60 in 10.0 mi SE 21.9 mph 27.6 mph N/A   Overcast
3:46 AM 71.6 °F 64.4 °F 78% 29.58 in 10.0 mi SE 23.0 mph 28.8 mph N/A   Mostly Cloudy
3:56 AM 71.4 °F 64.6 °F 79% 29.58 in 10.0 mi SE 17.3 mph 25.3 mph N/A   Mostly Cloudy
4:56 AM 72.1 °F 65.3 °F 79% 29.59 in 10.0 mi SE 18.4 mph 24.2 mph N/A   Overcast
5:26 AM 71.6 °F 66.2 °F 83% 29.58 in 10.0 mi SE 18.4 mph 24.2 mph N/A   Overcast
5:56 AM 72.5 °F 66.4 °F 81% 29.59 in 10.0 mi SSE 17.3 mph 23.0 mph N/A   Overcast
6:30 AM 71.6 °F 66.2 °F 83% 29.58 in 10.0 mi SE 17.3 mph - N/A   Overcast
6:34 AM 73.4 °F 66.2 °F 78% 29.59 in 10.0 mi SSE 16.1 mph - N/A   Overcast
6:48 AM 73.4 °F 66.2 °F 78% 29.59 in 10.0 mi SE 17.3 mph - N/A   Overcast
6:50 AM 73.4 °F 66.2 °F 78% 29.59 in 10.0 mi SE 17.3 mph - N/A   Overcast
6:53 AM 73.4 °F 66.2 °F 78% 29.59 in 10.0 mi SSE 16.1 mph - N/A   Overcast
7:00 AM 73.4 °F 66.2 °F 78% 29.59 in 10.0 mi SSE 13.8 mph - N/A   Mostly Cloudy
7:01 AM 73.4 °F 68.0 °F 83% 29.59 in 10.0 mi SSE 13.8 mph - N/A   Mostly Cloudy
7:14 AM 73.4 °F 66.2 °F 78% 29.59 in 10.0 mi SE 18.4 mph - N/A   Mostly Cloudy
7:40 AM 73.4 °F 68.0 °F 83% 29.60 in 10.0 mi SE 17.3 mph - N/A   Mostly Cloudy
7:45 AM 73.4 °F 68.0 °F 83% 29.59 in 10.0 mi SSE 17.3 mph - N/A   Mostly Cloudy
7:56 AM 73.9 °F 68.0 °F 82% 29.59 in 10.0 mi SSE 12.7 mph - N/A   Mostly Cloudy
8:39 AM 73.4 °F 68.0 °F 83% 29.57 in 10.0 mi SE 15.0 mph - N/A   Overcast
8:40 AM 73.4 °F 68.0 °F 83% 29.57 in 10.0 mi SSE 13.8 mph - N/A   Overcast
8:56 AM 73.6 °F 67.6 °F 82% 29.59 in 10.0 mi SE 15.0 mph 21.9 mph N/A   Overcast
9:53 AM 73.4 °F 68.0 °F 83% 29.58 in 10.0 mi SE 15.0 mph - N/A Rain Light Rain
9:56 AM 73.0 °F 67.5 °F 83% 29.57 in 10.0 mi SE 13.8 mph - 0.00 in Rain Light Rain
9:57 AM 73.4 °F 68.0 °F 83% 29.57 in 10.0 mi SE 15.0 mph - N/A Rain , Thunderstorm Light Thunderstorms and Rain
10:03 AM 73.4 °F 68.0 °F 83% 29.60 in 8.0 mi SSE 15.0 mph - N/A Rain , Thunderstorm Light Thunderstorms and Rain
10:05 AM 73.4 °F 68.0 °F 83% 29.62 in 7.0 mi SSE 19.6 mph 26.5 mph N/A Rain , Thunderstorm Thunderstorms and Rain
10:07 AM 71.6 °F 68.0 °F 88% 29.62 in 5.0 mi SSE 36.8 mph 42.6 mph N/A Rain , Thunderstorm Light Thunderstorms and Rain
10:08 AM 71.6 °F 66.2 °F 83% 29.63 in 4.0 mi SSE 31.1 mph 42.6 mph N/A Rain , Thunderstorm Heavy Thunderstorms and Rain
10:10 AM 69.8 °F 64.4 °F 83% 29.63 in 2.8 mi South 8.1 mph 42.6 mph N/A Rain , Thunderstorm Heavy Thunderstorms and Rain
10:12 AM 69.8 °F 62.6 °F 78% 29.64 in 1.6 mi SSE 18.4 mph 42.6 mph N/A Rain , Thunderstorm Heavy Thunderstorms and Rain
10:13 AM 68.0 °F 62.6 °F 83% 29.65 in 1.0 mi SSE 24.2 mph 42.6 mph N/A Rain , Thunderstorm Heavy Thunderstorms and Rain
10:14 AM 68.0 °F 62.6 °F 83% 29.65 in 0.5 mi SSE 25.3 mph 42.6 mph N/A Rain , Thunderstorm Heavy Thunderstorms and Rain
10:15 AM 68.0 °F 62.6 °F 83% 29.64 in 0.4 mi SE 17.3 mph 42.6 mph N/A Rain , Thunderstorm Heavy Thunderstorms and Rain
10:19 AM 68.0 °F 60.8 °F 78% 29.62 in 0.5 mi SE 4.6 mph 40.3 mph N/A Rain , Thunderstorm Heavy Thunderstorms and Rain
10:20 AM 68.0 °F 60.8 °F 78% 29.61 in 0.8 mi SE 5.8 mph 40.3 mph N/A Rain , Thunderstorm Heavy Thunderstorms and Rain
10:21 AM 69.8 °F 62.6 °F 78% 29.60 in 1.2 mi SE 8.1 mph 40.3 mph N/A Rain , Thunderstorm Heavy Thunderstorms and Rain
10:22 AM 69.8 °F 62.6 °F 78% 29.60 in 1.9 mi ESE 5.8 mph 40.3 mph N/A Rain , Thunderstorm Light Thunderstorms and Rain
10:27 AM 68.0 °F 64.4 °F 88% 29.60 in 4.0 mi SE 4.6 mph - N/A Rain , Thunderstorm Light Thunderstorms and Rain
10:49 AM 64.4 °F 59.0 °F 83% 29.61 in 9.0 mi SE 24.2 mph 31.1 mph N/A Rain , Thunderstorm Thunderstorms and Rain
10:56 AM 63.9 °F 58.6 °F 83% 29.60 in 10.0 mi SE 12.7 mph 31.1 mph 0.95 in Rain , Thunderstorm Light Thunderstorms and Rain
11:04 AM 62.6 °F 59.0 °F 88% 29.59 in 9.0 mi ESE 12.7 mph - N/A Rain , Thunderstorm Light Rain
11:15 AM 64.4 °F 60.8 °F 88% 29.62 in 10.0 mi SE 6.9 mph - N/A Rain , Thunderstorm Light Thunderstorms and Rain
11:54 AM 64.4 °F 60.8 °F 88% 29.55 in 5.0 mi ENE 24.2 mph 32.2 mph N/A Rain , Thunderstorm Light Rain
11:56 AM 63.5 °F 59.9 °F 88% 29.53 in 6.0 mi ENE 25.3 mph 32.2 mph 0.12 in Rain , Thunderstorm Light Rain
12:13 PM 62.6 °F 60.8 °F 94% 29.53 in 10.0 mi East 16.1 mph 25.3 mph N/A   Mostly Cloudy
12:56 PM 64.8 °F 59.5 °F 83% 29.57 in 10.0 mi ESE 6.9 mph - 0.00 in   Mostly Cloudy
1:56 PM 64.9 °F 59.4 °F 82% 29.58 in 10.0 mi ENE 9.2 mph - N/A   Scattered Clouds
2:56 PM 66.0 °F 59.7 °F 80% 29.57 in 10.0 mi East 6.9 mph - N/A   Mostly Cloudy
3:56 PM 68.9 °F 59.9 °F 73% 29.56 in 10.0 mi SE 9.2 mph - N/A   Scattered Clouds
4:56 PM 69.3 °F 57.4 °F 66% 29.55 in 10.0 mi SE 17.3 mph 23.0 mph N/A   Mostly Cloudy
5:56 PM 70.7 °F 58.3 °F 65% 29.53 in 10.0 mi SE 13.8 mph - N/A   Clear
6:56 PM 70.0 °F 58.8 °F 68% 29.52 in 10.0 mi ESE 16.1 mph - N/A   Partly Cloudy
7:56 PM 65.8 °F 57.7 °F 75% 29.51 in 10.0 mi East 11.5 mph - N/A   Clear
8:56 PM 64.9 °F 57.9 °F 78% 29.53 in 10.0 mi ESE 17.3 mph 23.0 mph N/A   Scattered Clouds
9:55 PM 64.4 °F 53.6 °F 68% 29.58 in 10.0 mi WSW 23.0 mph 29.9 mph N/A   Light Drizzle
9:56 PM 65.3 °F 52.3 °F 63% 29.59 in 10.0 mi WSW 20.7 mph 29.9 mph 0.00 in   Light Drizzle
10:06 PM 64.4 °F 50.0 °F 59% 29.60 in 10.0 mi West 20.7 mph 35.7 mph N/A   Mostly Cloudy
10:15 PM 64.4 °F 50.0 °F 59% 29.62 in 10.0 mi West 23.0 mph 36.8 mph N/A Rain Light Rain
10:25 PM 62.6 °F 51.8 °F 68% 29.63 in 10.0 mi West 27.6 mph 35.7 mph N/A   Mostly Cloudy
11:03 PM 59.0 °F 50.0 °F 72% 29.64 in 10.0 mi WNW 24.2 mph 34.5 mph N/A Rain Light Rain
11:42 PM 57.2 °F 51.8 °F 82% 29.68 in 10.0 mi Calm Calm - N/A   Mostly Cloudy
11:56 PM 56.8 °F 52.0 °F 84% 29.66 in 10.0 mi Calm Calm - 0.00 in   Mostly Cloudy